Regional Weather Roundup
Issued by NWS

Home | Current Version | Previous Version | Text Only | Print | Product List | Glossary Off
Versions: 1 2 3 4 5 6 7 8 9 10 11 12 13 14 15 16 17 18 19 20 21 22 23 24 25 26 27 28 29 30 31 32 33 34 35 36 37 38 39 40 41 42 43 44 45 46 47 48 49 50

000
ASUS43 KDTX 220410
RWRMI
MICHIGAN HOURLY REGIONAL WEATHER ROUNDUP
NATIONAL WEATHER SERVICE DETROIT/PONTIAC MI
1200 AM EDT MON SEP 22 2014

NOTE: "FAIR" INDICATES FEW OR NO CLOUDS BELOW 12,000 FEET WITH NO
SIGNIFICANT WEATHER AND/OR OBSTRUCTION TO VISIBILITY.

MIZ047>049-052>055-059>063-066>070-074>076-081>083-220500-
SOUTHEAST LOWER MICHIGAN

CITY           SKY/WX    TMP DP  RH WIND       PRES   REMARKS
ADRIAN         CLOUDY    49  46  90 N15       30.04R
ALMA           CLOUDY    48  41  76 NW7       30.08R
ANN ARBOR      CLOUDY    50  42  74 NW17      30.03R
BAD AXE        CLOUDY    48  44  87 NW13G18   29.99R
CARO           CLOUDY    49  44  82 NW9       30.02R
DETROIT CITY   CLOUDY    53  43  68 N13G22    30.01R
DETROIT        CLOUDY    51  44  77 NW13      30.02R
FLINT          CLOUDY    50  39  66 NW14      30.04R
GROSSE ILE     CLOUDY    52  46  82 NW12G18   30.00R
HILLSDALE      CLOUDY    49  43  78 N10G22    30.06R
HOWELL         CLOUDY    47  41  78 NW12G21   30.04R

CITY           SKY/WX    TMP DP  RH WIND       PRES   REMARKS
JACKSON        CLOUDY    47  40  76 N7G18     30.06R
LAMBERTVILLE   CLOUDY    52  45  76 N14G21    30.04R
LANSING        CLOUDY    48  38  68 NW10      30.07R
LAPEER         CLOUDY    47  43  87 NW7       30.01R
MASON          CLOUDY    47  38  70 NW15G24   30.06R
MONROE         CLOUDY    52  45  76 NW8       30.01R
MT. CLEMENS    CLOUDY    50  46  85 NW8       29.97R
PONTIAC        MOCLDY    49  42  77 NW13      30.00R
PORT HOPE        N/A     53  42  66 VRB5      29.96R
PORT HURON     CLOUDY    48  46  93 NW14G22   29.98R
TRI CITIES     CLOUDY    49  38  65 NW14G21   30.06R
TROY           CLOUDY    51  43  72 NW8G18    30.02R
SAGINAW HB     CLOUDY    48  37  66 NW10      30.03S
$$
MIZ043>046-050>051-056>058-064>065-071>073-077>080-220500-
SOUTHWEST LOWER MICHIGAN

CITY           SKY/WX    TMP DP  RH WIND       PRES   REMARKS
BATTLE CREEK   CLOUDY    49  39  68 N12       30.09R
BENTON HARBOR  MOCLDY    53  43  68 VRB5G18   30.11R
BIG RAPIDS     CLOUDY    46  42  85 NW5       30.09R
COLDWATER      CLOUDY    50  42  75 NW9G16    30.07R
FREMONT        CLOUDY    47  37  69 N8G17     30.11R
HOLLAND        CLOUDY    49  40  71 N7        30.13R
GRAND RAPIDS   CLOUDY    48  39  71 N7        30.10R
IONIA          CLOUDY    47  39  73 N9        30.08R
KALAMAZOO      CLEAR     46  39  76 NW10      30.10R
LUDINGTON      CLOUDY    49  42  75 N10G17    30.12R
MARSHALL       CLOUDY    47  38  70 N6        30.07R
MOUNT PLEASANT CLOUDY    47  39  72 NW9       30.07R
MUSKEGON       MOCLDY    49  39  68 N15       30.13R
SOUTH HAVEN    CLOUDY    51  44  77 NE8       30.12R
$$
MIZ016>042-220500-
NORTHERN LOWER MICHIGAN

CITY           SKY/WX    TMP DP  RH WIND       PRES   REMARKS
ALPENA         CLOUDY    48  39  71 NW7       30.02R
BEAVER ISLAND  MOCLDY    46  40  79 N9        30.10R
BELLAIRE       CLOUDY    48  41  74 CALM      30.08R
CADILLAC       CLOUDY    44  39  84 NW9       30.06R
CHARLEVOIX     CLOUDY    50  41  70 N15       30.10S
FRANKFORT      CLOUDY    49  39  67 N12G21    30.11R
GAYLORD        CLOUDY    45  38  76 VRB5      30.04R
GRAYLING       CLOUDY    47  39  72 NW9       30.05S
HARBOR SPRINGS CLOUDY    49  40  72 N3        30.07R
HOUGHTON LAKE  CLOUDY    46  37  71 N16G24    30.06R
MANISTEE       CLOUDY    48  36  61 N8        30.12R
OSCODA         CLOUDY    46  43  88 NW7       30.00R
PELLSTON       CLOUDY    49  40  71 N15       30.06R
ROGERS CITY    CLOUDY    49  41  73 N14G22    30.03R
TRAVERSE CITY  CLOUDY    50  38  63 N9G18     30.08R
$$
MIZ007>008-015-220500-
EASTERN UPPER MICHIGAN

CITY           SKY/WX    TMP DP  RH WIND       PRES   REMARKS
KINROSS        CLOUDY    46  37  71 N6        30.04S
MACKINAC ISLAN CLOUDY    47  41  80 NW8G16    30.05R
NEWBERRY       CLOUDY    42  38  87 NW6       30.08R
S. S. MARIE    CLOUDY    47  34  60 VRB7      30.05R
MUNISING         N/A     49  41  74 N15       30.13R
$$
MIZ004>006-011>014-085-220500-
CENTRAL UPPER MICHIGAN

CITY           SKY/WX    TMP DP  RH WIND       PRES   REMARKS
MANISTIQUE     CLEAR     39  37  92 NW7       30.11S WCI  34
ESCANABA       CLEAR     41  36  81 NW7       30.14R
MENOMINEE      CLEAR     39  37  93 CALM      30.15S
SAWYER-GWINN   CLEAR     38  36  92 NW6       30.14S WCI  33
$$
MIZ001>003-009>011-084-220500-
WESTERN UPPER MICHIGAN

CITY           SKY/WX    TMP DP  RH WIND       PRES   REMARKS
IRON MOUNTAIN  CLEAR     36  33  89 CALM      30.15R
HOUGHTON       CLEAR     35  32  88 CALM      30.12F
COPPER HARBOR    N/A     41  37  86 W6        30.13F
IRONWOOD       CLEAR     39  39 100 SW5       30.15R
$$

ABBREVIATIONS USED IN REMARKS
   TC - TEMPERATURE IN CELSIUS
  WCI - WIND CHILL INDEX
   HX - HEAT INDEX
  VSB - VISIBILITY



USA.gov is the U.S. government's official web portal to all federal, state and local government web resources and services.